Location: Dompnac
(44.5644°N, 4.1026°E)
Time: 19:01:41
(UTC+00:00)

Cosmos 1634 Rocket - Pass Details

Date: 22 January 2021
Orbit: 961 x 991 km, 82.9° (Epoch: 05 March)

Event Time Altitude Azimuth Distance (km) Brightness Sun altitude
Rises 06:20:58 0° 199° (SSW) 3,631 7.0 -9.2°
Reaches altitude 10° 06:23:30 10° 203° (SSW) 2,688 6.3 -8.8°
Maximum altitude 06:29:32 57° 282° (WNW) 1,121 4.0 -7.8°
Drops below altitude 10° 06:35:38 10° 1° (N) 2,711 6.1 -6.8°
Sets 06:38:13 0° 5° (N) 3,665 6.8 -6.3°
